Location: Santa Barbara
(34.4500°N, 119.7700°W)
Time: 18:49:39
(UTC-07:00)

Cosmos 1626 Rocket - Visible Passes

Search period start: 01 September 2014 00:00
Search period end: 11 September 2014 00:00
Orbit: 604 x 634 km, 82.5° (Epoch: 31 August)

Date Brightness Start Highest point End Pass type
(mag) Time Alt. Az. Time Alt. Az. Time Alt. Az.
03 Sep 6.8 05:20:11 10° ESE 05:22:13 13° E 05:24:14 10° ENE visible
04 Sep 6.0 05:35:44 10° SE 05:39:18 26° E 05:42:53 10° NE visible
05 Sep 4.5 05:52:17 10° S 05:56:29 51° E 06:00:41 10° NNE visible
06 Sep 3.5 06:09:25 10° S 06:13:45 77° W 06:18:04 10° N visible
07 Sep 6.6 04:51:26 10° ESE 04:53:38 14° E 04:55:50 10° NE visible
08 Sep 5.7 05:07:06 10° SSE 05:10:44 27° E 05:14:22 10° NNE visible
09 Sep 4.3 05:23:42 10° S 05:27:55 54° E 05:32:08 10° NNE visible
10 Sep 3.4 05:40:53 10° SSW 05:45:11 72° W 05:49:30 10° N visible
